STARLINK-3679, 51973

Orbit data source: Space-Track

STARLINK-3679, 51973 is a payload satellite owned by SpaceX/Seattle (US) in LEO that was launched on Wed, 09 Mar 2022 UTC via an FALCON 9 launch vehicle from the Air Force Eastern Test Range (AFETR). Payload-class satellites include a variety of spacecraft equipped with specific instruments for various scientific and technological missions. These include communications satellites like Starlink; space stations such as the ISS; scientific satellites like the Hubble; Earth observation satellites from companies like Planet Labs, Umbra, and HawkEye 360; GPS; miniature CubeSats for education and research; and military/defense satellites.

Loading next visibility...
Identifier
51973, 2022-025T
Orbit
LEO
Country
Flag of USUS
Related business
Manufacturer
SpaceX/Seattle
Mission
Operational Commercial Communications
Bus & Motor
STARLINK, Unknown motor
Mass
297 kg wet, ~275 kg dry
Launch date (UTC)
2022-03-09 (4 years ago)
Launch vehicle
FALCON 9
Launch site
Air Force Eastern Test Range (AFETR)
Object type
Payload
Rocket body
Debris
Shape & HBR
Box + 1 Pan, 10.1 m
Radar Cross Section
13.562 m², Large (>1 m²)

Expand to show TLE details & history
Last TLE update: 17 hours ago

TLE from 17 hours ago
0 STARLINK-3679
1 51973U 22025T   25346.91247932  .00000363  00000-0  43278-4 0  9993
2 51973  53.0558  60.3825 0001244  82.9113 277.2017 15.06394234207846
Epoch: 2025-12-12T21:53Z
TLE epoch observation values (Epoch: 2025-12-12T21:53:58.213Z)
Latitude
-0.00004°
Longitude
10.04262°
Altitude
548.001 km
Speed
7.589 km/s
True Right ascension
04h 01m 31s
True Declination
0° 00' 00"
Sunlit
Object was in full shadow at epoch
Visualization orbit readout
Latitude
Unknown
Longitude
Unknown
Altitude
Unknown
Speed
Unknown
Apparent Right ascension
Unknown
Apparent Declination
Unknown
Sunlit
N/A
Visualization observer readout
Local Sidereal Time
13:08:25
Azimuth
Unknown
Elevation
Unknown
Doppler factor
Unknown
Orbital elements
Apogee altitude
548.361 km
Perigee altitude
546.638 km
Semi-major axis
6,925.637 km
Eccentricity
0.00012
Inclination
53.0558°
RAAN
60.3825°
Arg. of periapsis
82.9113°
True anomaly
277.18756°
Mean anomaly
277.2017°
Eccentric anomaly
277.19463°
Mean motion
3.76577 °/min
Orbital period
95.6 mins
BSTAR
0.000043278
Loading maneuver chart data...
Computing Atmospheric mass density...
Loading historical data...
Loading historical data...
Loading historical data...
Loading historical data...
Loading historical data...
Loading historical data...
Loading historical data...

Documentation

Showing up to 5 results
|